Latest Coastal Weather Observations for Maatsuyker Island

IDT60701

Issued at 1:32 am EDT Friday 6 March 2015 (issued every 10 minutes, with the page automatically refreshed every 10 minutes)

About coastal observations | Map of coastal stations | Coastal observations for TAS | Marine services | Other Formats
Station Details ID: 094041 Name: MAATSUYKER ISLAND LIGHTHOUSE Lat: -43.66 Lon: 146.27 Height: 146.5 m
Data from the previous 72 hours. | See also: Recent months at Maatsuyker Island
Date/Time
EDT
Temp

°C
Wind Pressure Rain
since 9am
mm
Weather Cloud Vis
km
Sea
Height
m
Swell
Dir
 
Speed
knots
Gust
knots
hPa Trend Height
m
Period
s
Dir
06/01:30am 12.0 WNW 51 60 992.2 - 7.8 - - - - - - -
06/01:15am 12.2 NW 50 60 992.0 - 7.8 - - - - - - -
06/01:00am 12.0 NW 54 61 991.9 - 7.6 - - - - - - -
06/12:34am 11.8 NW 52 64 990.6 - 7.4 - - - - - - -
06/12:30am 11.8 NW 53 61 991.7 - 7.4 - - - - - - -
06/12:07am 11.7 NW 57 67 991.5 - 7.2 - - - - - - -
06/12:00am 11.7 NW 59 67 990.7 - 7.0 - - - - - - -
 
Date/Time
EDT
Temp

°C
Wind Pressure Rain
since 9am
mm
Weather Cloud Vis
km
Sea
Height
m
Swell
Dir
 
Speed
knots
Gust
knots
hPa Trend Height
m
Period
s
Dir
05/11:32pm 11.8 NW 60 70 991.5 - 6.8 - - - - - - -
05/11:30pm 11.4 NW 61 70 990.6 - 6.8 - - - - - - -
05/11:00pm 11.7 NW 62 73 991.3 - 6.0 - - - - - - -
05/10:40pm 11.4 NW 63 73 991.1 - 6.0 - - - - - - -
05/10:30pm 11.3 NW 62 69 991.1 - 5.8 - - - - - - -
05/10:05pm 11.0 NW 60 70 992.5 - 5.6 - - - - - - -
05/10:00pm 10.7 NW 63 70 992.2 - 5.6 - - - - - - -
05/09:44pm 10.8 NW 57 67 992.7 - 5.0 - - - - - - -
05/09:30pm 11.0 NW 58 65 994.0 - 4.8 - - - - - - -
05/09:01pm 10.8 NW 57 67 993.8 - 4.0 - - - - - - -
05/09:00pm 10.9 NW 56 65 994.0 - 4.0 - - - - - - -
05/08:32pm 10.7 NW 56 68 994.2 - 3.6 - - - - - - -
05/08:30pm 11.0 NW 56 65 994.6 - 3.6 - - - - - - -
05/08:02pm 10.7 NW 59 71 994.1 - 3.2 - - - - - - -
05/08:00pm 11.1 NW 58 66 994.5 - 3.2 - - - - - - -
05/07:30pm 10.5 NW 55 65 995.0 - 3.0 - - - - - - -
05/07:04pm 10.2 NW 52 63 995.9 - 2.8 - - - - - - -
05/07:00pm 10.1 NW 52 61 996.2 - 2.8 - - - - - - -
05/06:36pm 10.0 NW 57 67 996.0 - 2.8 - - - - - - -
05/06:30pm 9.7 NW 60 67 996.1 - 2.6 - - - - - - -
05/06:18pm 9.6 NW 56 67 996.9 - 2.4 - - - - - - -
05/06:00pm 9.4 NW 56 63 997.8 - 2.0 - - - - - - -
05/05:53pm 9.4 NW 58 68 997.3 - 2.0 - - - - - - -
05/05:42pm 9.2 NW 63 68 996.6 - 1.8 - - - - - - -
05/05:33pm 9.7 NW 52 63 997.5 - 1.6 - - - - - - -
05/05:30pm 9.8 NW 50 58 998.2 - 1.6 - - - - - - -
05/05:20pm 9.3 NW 52 62 998.6 - 1.6 - - - - - - -
05/05:00pm 9.1 NW 55 63 999.0 - 1.4 - - - - - - -
05/04:34pm 9.3 NW 51 61 999.0 - 1.0 - - - - - - -
05/04:30pm 8.7 NW 52 59 999.7 - 0.8 - - - - - - -
05/04:17pm 10.2 NW 52 63 999.2 - 0.6 - - - - - - -
05/04:00pm 10.5 NW 50 57 1000.1 - 0.6 - - - - - - -
05/03:42pm 9.0 NW 45 68 1001.5 - 0.6 - - - - - - -
05/03:38pm 8.8 NW 57 68 1000.4 - 0.4 - - - - - - -
05/03:35pm 8.9 NW 61 68 999.9 - 0.4 - - - - - - -
05/03:33pm 9.8 NW 49 61 1001.2 - 0.4 - - - - - - -
05/03:30pm 9.9 NW 48 55 1001.7 - 0.4 - - - - - - -
05/03:00pm 10.3 NW 36 51 1002.1 F 0.4 Distant precip. Cloudy 7 2 6.0 15 W
05/02:40pm 10.6 NW 47 58 1002.0 - 0.4 - - - - - - -
05/02:30pm 10.7 NW 41 46 1003.1 - 0.4 - - - - - - -
05/02:02pm 10.0 NW 39 52 1003.9 - 0.4 - - - - - - -
05/02:00pm 11.0 NW 37 44 1004.0 - 0.4 - - - - - - -
05/01:30pm 11.3 WNW 36 41 1005.4 - 0.4 - - - - - - -
05/01:29pm 11.2 WNW 37 41 1005.3 - 0.4 - - - - - - -
05/01:05pm 9.1 W 26 46 1006.6 - 0.4 - - - - - - -
05/01:00pm 8.5 WNW 37 47 1006.5 - 0.4 - - - - - - -
05/12:54pm 10.2 WNW 36 47 1005.9 - 0.2 - - - - - - -
05/12:30pm 11.0 WNW 35 40 1005.8 - 0.2 - - - - - - -
05/12:00pm 10.0 WNW 32 39 1006.3 - 0.2 - - - - - - -
05/11:30am 10.4 WNW 31 37 1006.9 - 0.2 - - - - - - -
05/11:17am 10.2 W 28 39 1007.1 - 0.2 - - - - - - -
05/11:00am 9.7 WNW 32 39 1006.7 - 0.2 - - - - - - -
05/10:46am 9.8 WNW 25 35 1006.8 - 0.2 - - - - - - -
05/10:30am 9.0 W 22 31 1007.1 - 0.2 - - - - - - -
05/10:13am 10.1 W 24 34 1006.7 - 0.2 - - - - - - -
05/10:00am 10.0 W 23 30 1006.5 - 0.2 - - - - - - -
05/09:31am 9.6 W 26 36 1006.5 - 0.0 - - - - - - -
05/09:30am 9.5 W 27 36 1006.5 - 0.0 - - - - - - -
05/09:00am 8.7 WSW 20 36 1005.8 R 8.8 Distant precip. Mostly cloudy 18 2 6.0 14 SW
05/08:57am 8.4 W 21 30 1005.9 - 8.8 - - - - - - -
05/08:46am 7.5 WSW 28 40 1006.2 - 8.8 - - - - - - -
05/08:33am 8.8 W 25 36 1005.6 - 8.8 - - - - - - -
05/08:30am 8.4 W 26 34 1005.4 - 8.8 - - - - - - -
05/08:24am 8.7 W 28 33 1005.5 - 8.8 - - - - - - -
05/08:00am 8.5 WSW 28 42 1005.0 - 8.8 - - - - - - -
05/07:30am 8.6 WSW 31 41 1004.3 - 8.8 - - - - - - -
05/07:00am 8.8 WSW 26 38 1003.6 - 8.8 - - - - - - -
05/06:30am 8.9 WSW 26 37 1002.7 - 8.8 - - - - - - -
05/06:09am 9.1 W 26 36 1002.1 - 8.8 - - - - - - -
05/06:00am 8.9 WSW 27 37 1001.8 R 8.8 Fine Partly cloudy 10 2 5.0 13 SW
05/05:51am 8.8 WSW 34 38 1001.7 - 8.8 - - - - - - -
05/05:38am 8.6 SW 22 36 1001.2 - 8.8 - - - - - - -
05/05:37am 8.5 SW 20 36 1001.2 - 8.8 - - - - - - -
05/05:30am 8.0 SW 31 44 1001.1 - 8.8 - - - - - - -
05/05:00am 8.5 SW 28 39 1000.4 - 8.8 - - - - - - -
05/04:38am 8.2 SSW 27 40 999.9 - 8.8 - - - - - - -
05/04:37am 8.2 SSW 29 40 999.8 - 8.8 - - - - - - -
05/04:35am 7.9 WSW 30 40 1000.1 - 8.8 - - - - - - -
05/04:32am 8.4 WSW 29 37 999.9 - 8.6 - - - - - - -
05/04:30am 8.7 W 23 37 999.7 - 8.6 - - - - - - -
05/04:21am 8.5 W 23 30 999.5 - 8.6 - - - - - - -
05/04:00am 8.4 WSW 25 35 999.2 - 8.6 - - - - - - -
05/03:52am 8.4 W 24 35 999.1 - 8.6 - - - - - - -
05/03:30am 8.2 SW 26 34 998.7 - 8.6 - - - - - - -
05/03:15am 7.8 SW 31 41 998.5 - 8.6 - - - - - - -
05/03:10am 8.2 SW 32 41 998.4 - 8.6 - - - - - - -
05/03:05am 8.6 W 21 31 998.1 - 8.4 - - - - - - -
05/03:00am 8.8 W 23 30 998.1 - 8.4 - - - - - - -
05/02:33am 8.7 W 19 32 998.0 - 8.4 - - - - - - -
05/02:30am 8.5 W 19 27 998.0 - 8.4 - - - - - - -
05/02:00am 7.7 WSW 29 39 998.0 - 8.4 - - - - - - -
05/01:35am 8.9 WSW 27 40 997.7 - 7.6 - - - - - - -
05/01:32am 9.1 WSW 27 38 997.2 - 7.4 - - - - - - -
05/01:30am 9.3 NW 33 38 996.7 - 7.4 - - - - - - -
05/01:00am 10.2 WNW 32 39 995.9 - 7.2 - - - - - - -
05/12:44am 9.1 WNW 31 41 996.9 - 7.0 - - - - - - -
05/12:30am 10.5 WNW 31 39 996.1 - 7.0 - - - - - - -
05/12:00am 10.1 WNW 27 33 996.2 - 7.0 - - - - - - -
 
Date/Time
EDT
Temp

°C
Wind Pressure Rain
since 9am
mm
Weather Cloud Vis
km
Sea
Height
m
Swell
Dir
 
Speed
knots
Gust
knots
hPa Trend Height
m
Period
s
Dir
04/11:30pm 9.7 W 21 27 996.1 - 7.0 - - - - - - -
04/11:20pm 9.3 W 21 29 996.4 - 7.0 - - - - - - -
04/11:01pm 9.4 WNW 31 41 996.6 - 7.0 - - - - - - -
04/11:00pm 9.6 WNW 32 41 996.5 - 7.0 - - - - - - -
04/10:30pm 10.6 WNW 37 42 995.5 - 7.0 - - - - - - -
04/10:00pm 10.5 WNW 38 43 995.7 - 6.8 - - - - - - -
04/09:59pm 10.4 WNW 38 52 995.8 - 6.8 - - - - - - -
04/09:36pm 11.6 NW 39 50 993.8 - 6.8 - - - - - - -
04/09:30pm 11.5 NW 37 44 994.6 - 6.4 - - - - - - -
04/09:00pm 11.4 NW 39 47 994.3 - 6.0 - - - - - - -
04/08:30pm 11.2 NNW 37 43 994.8 - 5.8 - - - - - - -
04/08:00pm 11.8 NW 40 53 995.3 - 4.8 - - - - - - -
04/07:55pm 11.9 NNW 38 53 994.6 - 4.8 - - - - - - -
04/07:30pm 12.3 NNW 38 45 995.2 - 4.4 - - - - - - -
04/07:00pm 11.9 NNW 37 42 995.6 - 4.4 - - - - - - -
04/06:39pm 11.3 NW 40 50 996.0 - 4.2 - - - - - - -
04/06:30pm 11.2 NW 43 50 995.6 - 4.2 - - - - - - -
04/06:15pm 11.6 NNW 40 50 995.9 - 3.8 - - - - - - -
04/06:00pm 12.7 NNW 39 49 995.9 - 3.8 - - - - - - -
04/05:30pm 12.9 NNW 40 48 996.4 - 3.8 - - - - - - -
04/05:00pm 11.6 NW 40 51 997.1 - 3.8 - - - - - - -
04/04:31pm 10.7 NW 47 57 997.3 - 3.6 - - - - - - -
04/04:30pm 10.5 NW 48 57 996.9 - 3.6 - - - - - - -
04/04:18pm 11.0 NW 51 61 998.0 - 2.2 - - - - - - -
04/04:16pm 13.2 NW 37 58 997.7 - 1.6 - - - - - - -
04/04:00pm 13.7 NNW 38 47 997.7 - 1.6 - - - - - - -
04/03:44pm 14.2 NNW 37 47 997.9 - 1.6 - - - - - - -
04/03:30pm 13.8 NNW 39 46 998.0 - 1.6 - - - - - - -
04/03:00pm 13.9 NNW 30 41 999.2 F 1.6 Haze Mostly cloudy 5 2 5.0 12 SW
04/02:57pm 13.6 NNW 33 43 999.4 - 1.6 - - - - - - -
04/02:38pm 13.6 NW 44 55 998.3 - 1.6 - - - - - - -
04/02:30pm 13.8 NW 42 49 998.7 - 1.6 - - - - - - -
04/02:00pm 14.3 NW 41 48 999.5 - 1.6 - - - - - - -
04/01:30pm 14.0 NW 44 51 999.1 - 1.6 - - - - - - -
04/01:02pm 13.9 NW 41 51 999.4 - 1.6 - - - - - - -
04/01:00pm 13.9 NW 40 47 999.6 - 1.6 - - - - - - -
04/12:30pm 13.9 NW 44 50 1000.0 - 1.6 - - - - - - -
04/12:00pm 13.1 NW 42 50 1000.3 - 1.6 - - - - - - -
04/11:38am 13.0 NW 46 58 1000.0 - 1.6 - - - - - - -
04/11:30am 13.0 NW 46 52 1000.2 - 1.6 - - - - - - -
04/11:00am 12.4 NW 42 52 1000.7 - 1.4 - - - - - - -
04/10:37am 11.8 NW 41 51 1000.8 - 1.2 - - - - - - -
04/10:30am 11.7 NW 44 52 1001.0 - 0.8 - - - - - - -
04/10:00am 13.4 NW 47 54 999.9 - 0.0 - - - - - - -
04/09:38am 13.6 NW 47 58 999.9 - 0.0 - - - - - - -
04/09:30am 13.6 NNW 48 57 999.6 - 0.0 - - - - - - -
04/09:00am 12.6 NNW 36 54 999.0 F 0.8 Showers Cloudy 3 2 4.0 13 SW
04/08:35am 12.8 NNW 48 58 999.1 - 0.4 - - - - - - -
04/08:30am 13.0 NNW 49 58 998.6 - 0.4 - - - - - - -
04/08:19am 13.8 NNW 46 63 998.3 - 0.4 - - - - - - -
04/08:00am 14.1 NNW 42 52 998.9 - 0.4 - - - - - - -
04/07:30am 13.9 NNW 49 61 998.2 - 0.4 - - - - - - -
04/07:00am 13.6 NNW 49 61 998.3 - 0.2 - - - - - - -
04/06:30am 14.1 NNW 48 58 998.9 - 0.2 - - - - - - -
04/06:00am 14.1 NNW 38 57 998.6 F 0.2 Fine Partly cloudy 10 2 4.0 11 SW
04/05:31am 13.1 NNW 43 54 999.4 - 0.2 - - - - - - -
04/05:30am 13.2 NNW 43 52 999.6 - 0.2 - - - - - - -
04/05:00am 13.3 NNW 41 51 1000.2 - 0.0 - - - - - - -
04/04:30am 14.1 NNW 41 52 1000.5 - 0.0 - - - - - - -
04/04:07am 13.6 NNW 40 51 1001.1 - 0.0 - - - - - - -
04/04:00am 13.5 NNW 41 48 1001.5 - 0.0 - - - - - - -
04/03:30am 12.4 NNW 45 57 1001.5 - 0.0 - - - - - - -
04/03:25am 12.6 NNW 43 57 1000.7 - 0.0 - - - - - - -
04/03:10am 13.8 NNW 36 46 1001.9 - 0.0 - - - - - - -
04/03:03am 13.5 NW 40 46 1002.5 - 0.0 - - - - - - -
04/03:00am 13.3 NNW 28 39 1002.8 - 0.0 - - - - - - -
04/02:41am 12.9 NNW 29 39 1003.2 - 0.0 - - - - - - -
04/02:30am 12.7 NNW 28 37 1003.3 - 0.0 - - - - - - -
04/02:04am 12.5 NNW 33 53 1003.5 - 0.0 - - - - - - -
04/02:03am 12.5 NNW 33 53 1003.4 - 0.0 - - - - - - -
04/02:01am 12.5 NNW 43 53 1003.0 - 0.0 - - - - - - -
04/02:00am 12.4 NNW 44 53 1002.8 - 0.0 - - - - - - -
04/01:55am 12.4 NNW 49 53 1002.5 - 0.0 - - - - - - -
04/01:33am 12.3 NNW 37 47 1003.7 - 0.0 - - - - - - -
04/01:30am 12.2 NNW 40 47 1003.7 - 0.0 - - - - - - -
04/01:11am 12.7 NW 43 49 1004.2 - 0.0 - - - - - - -
04/01:10am 12.7 NNW 32 49 1004.3 - 0.0 - - - - - - -
04/01:00am 13.2 NNW 27 37 1004.8 - 0.0 - - - - - - -
04/12:58am 13.2 NNW 26 37 1004.8 - 0.0 - - - - - - -
04/12:30am 12.8 NNW 24 32 1005.6 - 0.0 - - - - - - -
04/12:00am 12.6 NNW 24 31 1006.4 - 0.0 - - - - - - -
 
Date/Time
EDT
Temp

°C
Wind Pressure Rain
since 9am
mm
Weather Cloud Vis
km
Sea
Height
m
Swell
Dir
 
Speed
knots
Gust
knots
hPa Trend Height
m
Period
s
Dir
03/11:30pm 12.3 NNW 23 34 1007.4 - 0.0 - - - - - - -
03/11:27pm 12.2 NNW 23 34 1007.4 - 0.0 - - - - - - -
03/11:00pm 12.2 NNW 23 29 1007.9 - 0.0 - - - - - - -
03/10:30pm 12.2 NNW 24 31 1008.3 - 0.0 - - - - - - -
03/10:03pm 12.4 NNW 24 34 1008.7 - 0.0 - - - - - - -
03/10:00pm 12.5 NNW 25 34 1008.7 - 0.0 - - - - - - -
03/09:30pm 13.3 NNW 26 37 1009.0 - 0.0 - - - - - - -
03/09:13pm 13.3 NNW 23 33 1009.5 - 0.0 - - - - - - -
03/09:00pm 13.2 NNW 28 35 1009.2 - 0.0 - - - - - - -
03/08:41pm 13.2 NNW 29 39 1009.0 - 0.0 - - - - - - -
03/08:30pm 13.2 NNW 29 38 1009.3 - 0.0 - - - - - - -
03/08:00pm 12.8 NNW 30 38 1009.0 - 0.0 - - - - - - -
03/07:41pm 13.3 NNW 26 36 1009.0 - 0.0 - - - - - - -
03/07:30pm 13.3 NNW 28 35 1009.1 - 0.0 - - - - - - -
03/07:00pm 12.7 NNW 29 36 1009.3 - 0.0 - - - - - - -
03/06:30pm 13.3 NNW 26 36 1009.6 - 0.0 - - - - - - -
03/06:00pm 13.3 NNW 26 34 1009.9 - 0.0 - - - - - - -
03/05:30pm 13.6 NNW 27 34 1010.3 - 0.0 - - - - - - -
03/05:00pm 14.1 NNW 25 33 1010.8 - 0.0 - - - - - - -
03/04:30pm 13.5 NNW 26 33 1011.0 - 0.0 - - - - - - -
03/04:00pm 13.3 NNW 28 35 1011.3 - 0.0 - - - - - - -
03/03:30pm 13.2 NNW 31 35 1011.0 - 0.0 - - - - - - -
03/03:00pm 14.0 NW 20 33 1011.6 F 0.0 Haze Partly cloudy 11 2 4.5 13 SW
03/02:30pm 14.1 NW 26 31 1012.3 - 0.0 - - - - - - -
03/02:00pm 13.5 NW 25 29 1012.3 - 0.0 - - - - - - -
03/01:30pm 12.9 NNW 24 31 1012.8 - 0.0 - - - - - - -
03/01:00pm 13.2 NW 26 30 1013.2 - 0.0 - - - - - - -
03/12:30pm 13.2 NW 24 27 1013.5 - 0.0 - - - - - - -
03/12:00pm 12.9 NNW 23 27 1013.6 - 0.0 - - - - - - -
03/11:30am 12.2 NW 24 28 1014.1 - 0.0 - - - - - - -
03/11:00am 12.4 NW 25 29 1014.2 - 0.0 - - - - - - -
03/10:30am 11.8 NW 25 29 1014.0 - 0.0 - - - - - - -
03/10:00am 11.8 NW 25 30 1013.9 - 0.0 - - - - - - -
03/09:30am 11.8 NW 25 30 1013.8 - 0.0 - - - - - - -
03/09:00am 11.9 WNW 23 32 1013.4 R 1.2 Fine Partly cloudy 20 1 4.0 12 SW
03/08:30am 11.5 NW 25 28 1013.4 - 1.2 - - - - - - -
03/08:00am 11.6 NW 27 33 1013.3 - 1.2 - - - - - - -
03/07:30am 11.4 WNW 27 31 1013.0 - 1.2 - - - - - - -
03/07:00am 11.6 NW 27 31 1012.7 - 1.2 - - - - - - -
03/06:30am 11.3 WNW 27 32 1012.4 - 1.2 - - - - - - -
03/06:00am 11.4 WNW 25 34 1011.9 R 1.2 Fine Mostly clear 10 2 3.0 12 SW
03/05:30am 11.4 WNW 32 39 1011.4 - 1.2 - - - - - - -
03/05:00am 11.7 WNW 31 39 1011.3 - 1.2 - - - - - - -
03/04:30am 11.8 WNW 31 38 1010.9 - 1.2 - - - - - - -
03/04:00am 12.1 WNW 28 35 1011.1 - 1.2 - - - - - - -
03/03:30am 12.1 WNW 31 37 1010.8 - 1.2 - - - - - - -
03/03:00am 12.4 NW 31 36 1010.9 - 1.2 - - - - - - -
03/02:30am 12.2 NW 33 37 1010.8 - 1.2 - - - - - - -
03/02:00am 12.1 NW 32 36 1010.7 - 1.2 - - - - - - -

Other Formats:

Comma delimited format used in spreadsheet applications
http://www.bom.gov.au/fwo/IDT60701/IDT60701.94962.axf

JavaScript Object Notation format (JSON) in row-major order
http://www.bom.gov.au/fwo/IDT60701/IDT60701.94962.json